Temp_Advection
nan nan nan nan nan nan nan nan nan nan nan nan nan nan nan nan nan nan nan nan nan nan nan nan nan nan nan nan nan nan nan nan nan nan nan nan nan nan nan nan nan nan nan nan nan nan nan nan nan
nan 0 0 0 0 -0 -1 -1 -1 -1 -1 0 0 0 -0 -0 0 -1 -1 -0 0 1 0 0 -0 0 0 0 0 0 0 0 0 0 0 -0 -0 0 -0 0 0 -0 -0 -0 -0 0 0 0 nan
nan 0 -0 0 -0 -1 -1 -1 -1 -1 -0 0 0 0 0 -0 0 -0 -0 -0 0 1 1 0 0 0 0 0 0 0 0 0 0 0 0 0 -0 -0 -0 0 0 0 0 -0 0 0 0 -0 nan
nan -0 0 -0 -1 -1 -1 -1 -0 -0 -0 0 0 0 -0 0 0 -0 -0 -0 -0 1 1 1 0 0 0 0 0 0 0 0 0 0 0 0 0 0 -0 0 0 0 0 0 -0 0 0 -0 nan
nan -0 0 -0 -2 -1 -0 -3 -1 0 0 0 0 -0 0 0 0 0 0 -1 -0 -0 0 1 1 0 0 0 0 0 0 0 0 0 0 0 0 0 0 0 0 0 0 0 0 -0 0 0 nan
nan 0 0 -1 -2 -1 -1 -1 -0 -1 -1 0 0 0 0 1 0 0 1 -0 -0 -0 -0 0 1 0 0 0 0 0 0 0 0 0 0 0 0 0 0 0 0 0 -0 -0 0 0 -0 -0 nan
nan 0 -0 -1 -1 -1 -1 -2 -1 -1 -1 -0 0 0 0 1 1 0 0 -0 -0 0 0 -0 0 1 0 1 0 0 0 0 0 0 0 0 0 0 0 0 0 0 0 0 -0 -0 -0 -0 nan
nan -0 -1 -0 -1 -1 -2 -1 -1 -1 -1 -0 0 -0 0 0 1 1 0 0 0 0 0 0 0 1 1 0 0 0 0 0 0 0 0 0 0 1 0 0 0 0 0 0 0 0 -0 -0 nan
nan -0 -1 -2 -1 -1 -1 -0 -0 0 0 0 1 0 0 0 1 1 1 1 1 0 0 0 0 0 0 -0 0 0 0 0 0 0 0 0 0 0 0 0 0 0 0 0 0 0 0 0 nan
nan -0 -2 -1 -1 -1 -1 -0 0 1 1 0 0 1 1 1 1 0 0 0 0 0 0 0 0 -0 -0 -0 0 0 0 0 0 0 0 -0 -0 -0 0 0 0 0 0 0 0 0 0 0 nan
nan -1 -1 -1 -0 -1 -1 -2 -1 1 0 0 0 0 0 1 1 1 0 0 1 1 0 0 -0 0 0 0 -0 0 0 0 0 0 0 -0 -0 -0 0 0 0 0 0 0 0 0 0 0 nan
nan -2 -2 -0 -1 -1 -1 -1 -1 -1 -0 -0 -0 -0 0 0 0 1 0 1 1 1 -0 0 -0 0 0 0 0 0 0 0 0 0 0 -0 -0 0 1 0 0 0 1 0 0 0 0 0 nan
nan -0 -1 -2 -2 -2 -1 -1 -1 -2 0 0 0 0 0 -0 -0 -0 0 1 1 0 0 0 -0 0 -0 0 0 0 0 0 -0 0 -0 0 0 0 1 0 0 0 0 0 0 -0 0 0 nan
nan 0 1 -0 -1 -1 -1 -1 -1 -1 -1 0 0 -0 0 0 0 0 0 0 0 0 0 0 0 0 0 1 0 0 0 0 0 0 0 1 1 0 -0 -0 -0 -0 -1 0 0 0 -0 0 nan
nan 0 -0 -0 -1 -0 -0 -0 -1 -1 -2 0 0 -0 -0 0 0 0 -0 -0 -0 -0 0 0 0 0 1 0 0 0 0 -0 1 0 1 1 0 0 -0 -0 0 -1 -0 -0 -0 -0 -0 -0 nan
nan 0 -0 -0 -0 -0 0 -0 -1 -0 -1 -2 -2 -1 -0 0 0 -0 -0 -0 0 -0 0 0 0 -0 -0 0 -0 -0 0 0 0 0 0 0 -0 0 0 0 -0 -1 0 0 -0 -0 -0 0 nan
nan -0 -1 -1 -0 0 -0 -0 -0 -0 -1 -1 -2 -1 -0 0 0 0 -0 0 0 0 1 1 0 0 0 1 0 1 0 0 0 0 0 -0 0 0 0 -0 -1 0 0 0 0 0 0 -0 nan
nan -0 -0 -0 -1 0 0 -1 -0 -0 -0 -1 -1 -1 -0 0 0 0 0 0 0 1 1 1 1 1 1 0 1 1 0 0 1 1 0 -0 -0 -0 -1 -0 0 1 -0 -0 0 0 0 0 nan
nan 0 -0 -1 0 -0 -1 -0 -0 -1 -0 -1 -1 -1 0 0 0 0 0 0 0 0 1 0 1 1 1 0 1 -1 -0 0 1 0 -0 -1 0 -0 -1 0 0 -0 -0 0 -0 -0 -0 0 nan
nan -0 -1 -1 0 -0 -1 0 -0 -0 -0 -0 0 -1 -1 -0 0 0 0 0 0 1 1 0 1 0 -0 0 0 -0 -0 1 0 0 -0 -0 0 0 -0 0 -0 -0 0 0 -0 -0 -0 -0 nan
nan -0 -1 -1 -0 0 -0 -0 -0 -1 0 0 0 -1 -1 -1 0 0 0 0 1 1 0 0 0 0 1 1 -0 -1 -2 1 0 0 0 0 0 -0 0 0 0 0 -0 -0 -0 -0 -0 -0 nan
nan -0 -0 0 -0 -0 -0 0 1 0 0 1 2 1 -1 -1 -0 0 0 1 1 1 0 0 1 1 1 -0 -1 -2 -1 -1 -0 0 0 1 1 0 0 0 0 0 -0 0 0 0 0 0 nan
nan -1 -1 -0 -0 -0 0 -0 -1 -0 2 -2 -3 -4 -5 -4 -2 -1 0 0 1 1 1 1 0 0 0 -1 -0 0 1 -1 0 0 1 1 0 0 0 0 0 0 0 0 0 0 0 0 nan
nan -0 -0 -0 0 -0 -0 -0 -0 -1 -1 -1 -0 -1 -2 -2 -2 -2 -0 1 1 1 1 1 0 1 0 -0 1 1 0 1 -1 -2 0 -0 -0 0 0 0 0 0 0 0 1 0 0 0 nan
nan -0 0 0 -0 -0 0 -1 -0 -0 -0 -0 -0 -0 -1 -2 -2 -2 -1 -0 1 1 1 0 1 1 0 -0 1 0 0 -0 0 0 0 -0 0 0 0 0 0 0 0 1 1 0 0 0 nan
nan -0 -0 0 -0 -0 -0 -0 -0 -0 -0 -0 -0 -0 -1 -2 -2 -2 -1 -1 -0 0 0 0 0 1 -0 -0 0 0 0 1 1 1 0 -0 0 0 0 0 1 0 0 0 0 0 0 0 nan
nan -0 -0 -0 -0 -0 -0 -0 0 -0 -0 -0 -1 -0 -1 -1 -2 -2 -2 -1 -1 -0 0 -0 0 0 -0 -0 -0 0 1 1 1 1 0 1 1 -0 -1 0 0 1 1 1 1 0 0 0 nan
nan -0 0 -0 -0 -0 -0 -0 -0 -1 -0 -0 -0 -1 -0 -1 -2 -2 -2 -2 -1 -0 -0 -0 1 1 0 -0 0 1 1 0 0 -0 1 1 -0 -0 -0 0 0 1 1 1 0 0 0 1 nan
nan -0 -0 -0 -0 -0 -0 -0 -0 -0 -0 -0 -0 -0 -0 -0 -2 -2 -2 -2 -2 -0 -0 -0 1 1 0 0 -0 0 1 -0 -0 0 0 0 0 0 0 1 1 0 0 1 0 0 0 1 nan
nan nan nan nan nan nan nan nan nan nan nan nan nan nan nan nan nan nan nan nan nan nan nan nan nan nan nan nan nan nan nan nan nan nan nan nan nan nan nan nan nan nan nan nan nan nan nan nan nan
Wind_Speed
13 12 9 9 3 5 13 10 14 17 12 24 13 4 5 7 4 3 20 10 20 15 27 27 27 25 23 20 19 18 16 16 18 18 18 18 19 17 17 18 19 20 20 20 20 19 20 22 22
11 10 9 2 3 12 12 17 19 16 16 5 7 8 4 4 9 12 23 15 18 17 25 28 27 26 23 21 19 19 17 17 17 18 17 18 18 17 18 19 19 20 20 20 19 20 21 22 22
16 10 5 3 4 16 10 17 16 21 23 8 6 7 5 5 11 16 11 20 20 19 25 29 28 27 24 22 20 19 17 18 18 18 17 17 17 17 18 18 19 20 20 19 20 21 21 22 23
13 12 7 8 16 8 16 9 16 14 18 13 11 5 7 15 7 14 13 26 24 19 21 28 29 27 25 22 21 19 18 18 18 18 18 18 17 18 18 18 18 19 20 20 21 21 21 21 22
19 10 8 15 23 18 15 30 17 11 15 19 20 9 8 12 14 11 13 25 27 21 20 26 28 26 25 22 21 20 20 19 19 19 19 18 18 19 19 19 19 19 19 21 20 20 20 19 21
14 15 10 23 19 20 20 34 34 24 21 24 21 19 14 21 20 15 14 22 26 26 20 25 27 26 24 23 21 20 20 21 20 19 19 19 20 20 19 19 19 19 19 20 19 19 19 19 21
8 11 23 17 16 23 19 36 23 28 27 22 28 11 13 23 19 19 17 27 28 28 26 25 27 26 24 23 22 22 22 22 20 19 18 17 17 20 20 20 20 20 19 18 17 19 20 18 19
8 7 22 22 19 20 27 28 31 34 21 25 25 13 12 24 22 18 20 25 31 30 25 26 30 28 26 23 23 23 23 22 20 19 20 21 21 20 21 22 22 22 21 19 19 19 19 19 18
17 7 21 31 22 15 24 15 33 23 23 25 28 21 13 28 27 23 26 26 30 27 25 27 32 29 26 25 24 24 23 22 21 21 22 23 23 23 24 23 22 21 20 20 20 20 19 18 18
12 12 32 16 16 16 18 19 9 13 20 22 26 10 18 29 27 29 34 33 31 27 31 31 33 32 29 28 26 25 24 23 23 23 23 25 27 26 26 24 22 21 22 22 21 20 20 20 19
16 21 16 20 22 24 20 22 25 13 17 22 18 15 21 24 26 29 36 35 34 30 35 32 32 33 33 30 30 27 27 27 25 28 30 30 28 27 26 25 22 22 22 23 23 24 23 20 20
7 18 23 21 31 16 20 26 22 16 10 27 34 23 23 23 28 31 35 33 35 35 37 35 34 35 33 32 31 30 30 29 31 32 31 31 30 27 26 26 26 25 24 23 21 22 24 21 19
9 10 18 20 21 27 18 16 16 21 16 20 19 28 27 25 26 27 26 25 32 37 40 39 38 38 36 32 33 32 33 33 32 33 32 30 29 28 29 30 28 26 25 22 24 19 18 16 20
14 18 21 18 24 20 20 20 14 12 16 23 26 24 26 27 27 25 25 26 30 39 42 42 41 41 39 36 36 36 36 33 33 32 32 29 30 27 31 29 27 26 25 23 20 19 19 20 19
13 12 14 15 20 15 4 12 20 21 24 20 28 24 16 31 31 30 29 29 30 39 44 45 44 43 40 39 39 38 36 34 33 32 30 28 28 27 29 27 27 28 24 23 24 22 21 21 19
13 10 4 4 10 7 9 6 17 26 26 21 21 26 23 21 34 32 29 31 32 37 41 47 46 45 44 42 41 39 36 35 32 30 33 30 32 27 28 27 29 28 24 25 25 24 24 23 22
6 6 11 10 11 8 17 7 9 11 21 26 26 29 28 22 19 30 27 32 35 37 41 47 47 47 46 44 42 40 36 35 34 36 35 32 27 26 30 32 31 27 26 25 24 23 23 26 24
6 5 6 5 8 14 16 16 8 16 16 23 22 21 30 25 25 25 28 33 35 40 38 46 47 49 47 45 43 39 39 36 35 35 34 30 25 29 32 32 28 27 28 27 26 27 27 25 24
9 6 6 10 8 6 11 16 14 12 11 19 18 18 22 25 24 27 27 30 30 39 39 44 47 46 49 47 45 41 39 38 35 34 30 30 29 31 33 30 28 30 29 27 29 30 29 27 23
8 6 8 9 3 7 8 12 15 16 9 13 19 18 20 24 27 26 27 26 34 33 38 39 48 50 45 49 46 45 41 38 36 35 32 31 31 33 32 31 31 32 30 30 32 31 30 26 26
5 3 9 11 12 5 6 7 15 15 17 12 11 16 22 19 27 28 26 26 31 31 38 40 44 50 50 49 49 49 42 38 39 37 34 33 34 35 33 32 32 32 32 32 33 32 29 29 27
4 8 11 11 2 2 6 6 11 14 13 11 15 20 20 19 18 18 25 28 29 32 35 40 38 50 49 51 47 47 45 45 44 40 37 35 36 36 34 34 34 33 33 33 33 31 29 26 27
6 13 10 10 3 6 3 2 7 7 12 12 16 23 25 17 11 10 22 26 25 31 34 38 42 43 58 52 49 47 45 46 46 42 40 38 38 37 36 35 35 34 33 33 33 32 30 27 25
6 6 5 4 2 3 4 2 5 6 10 13 17 24 25 18 15 13 10 24 26 28 33 35 42 45 49 51 48 44 46 47 47 45 42 42 40 40 38 37 37 35 35 35 34 32 29 29 26
9 2 1 2 1 4 8 7 3 7 11 11 13 20 24 19 18 13 7 4 21 28 33 34 41 46 47 46 47 44 44 47 45 46 46 46 44 43 43 41 40 39 38 36 35 33 31 30 28
8 3 2 2 4 1 4 5 3 5 12 16 17 19 23 25 20 17 12 7 6 25 31 35 37 42 46 47 47 44 43 48 44 45 48 49 48 46 45 43 42 40 40 38 36 35 33 32 28
8 4 1 4 4 4 5 4 3 12 13 18 22 25 27 31 26 21 19 13 10 17 29 33 34 39 43 46 47 43 42 47 46 46 48 47 47 48 44 43 43 42 41 40 38 36 36 34 30
2 4 2 2 5 3 4 4 4 14 16 15 16 24 27 32 27 22 20 17 10 10 25 29 33 39 42 45 43 40 42 47 43 38 43 47 49 46 46 46 45 42 42 41 39 38 37 35 34
9 5 3 1 2 3 2 1 2 6 10 12 16 21 25 28 28 22 19 17 15 7 16 27 30 33 40 42 41 43 46 47 43 36 40 38 45 50 50 49 47 47 48 44 43 41 40 39 38
9 2 4 3 5 1 2 1 4 2 7 14 18 23 24 23 25 22 18 15 15 11 12 21 25 30 33 35 40 39 43 45 42 38 37 35 34 41 44 46 49 48 52 48 46 45 42 39 38
Wind_Direction
207 203 175 156 211 226 220 225 250 223 246 230 203 103 164 198 200 190 138 138 182 187 178 171 170 166 163 159 155 152 147 142 143 140 138 136 134 129 124 123 124 125 125 126 125 121 117 114 110
185 197 183 169 225 216 221 208 227 245 237 178 175 144 110 292 232 134 159 150 185 192 180 173 172 170 167 163 158 156 154 149 149 147 144 140 139 134 132 130 129 130 129 129 127 124 119 114 112
165 188 162 155 220 226 222 210 218 234 246 159 122 162 208 230 229 143 169 160 172 196 181 173 174 173 170 164 162 161 156 154 154 153 150 148 144 137 135 134 135 134 132 131 131 126 121 116 112
183 192 230 212 228 238 238 249 218 235 231 160 175 137 230 216 214 155 156 151 165 190 182 171 174 175 172 167 165 164 163 161 159 159 155 152 149 146 142 139 140 138 136 133 133 129 123 120 116
203 217 226 230 230 216 219 250 263 228 233 170 179 165 179 198 184 151 179 156 166 180 189 174 173 175 173 170 170 168 166 163 161 161 159 155 154 151 148 145 143 141 136 137 136 133 127 121 117
202 213 227 227 230 219 200 219 242 249 247 199 189 216 178 184 193 181 198 153 170 188 185 177 173 173 174 173 171 165 166 165 164 162 160 161 159 154 152 149 146 142 140 139 140 132 129 125 123
231 212 226 241 226 229 219 210 217 228 239 216 187 215 202 180 187 198 191 157 177 188 189 178 175 174 174 173 167 169 168 167 166 165 164 159 158 157 154 151 149 148 146 143 141 134 133 130 131
241 248 238 232 230 240 217 223 211 210 225 219 187 208 206 185 175 180 164 163 186 187 188 182 176 175 172 169 173 172 171 170 166 162 161 157 156 157 156 153 153 149 147 147 142 138 134 131 130
235 233 232 231 225 232 248 233 226 222 225 229 206 195 210 188 177 162 162 176 189 188 190 185 177 173 169 173 175 175 173 169 166 166 162 160 158 157 160 158 155 152 149 144 136 132 130 128 127
228 224 242 254 243 254 257 258 181 181 204 235 247 171 153 170 171 168 165 185 186 185 182 184 178 175 174 178 178 178 171 168 170 164 163 163 164 163 159 157 153 146 143 141 137 136 133 131 126
252 243 256 262 261 275 277 281 270 196 202 206 232 176 160 170 173 178 176 189 193 193 184 183 178 177 181 179 180 177 173 173 168 171 171 171 170 168 166 157 152 148 148 147 151 149 146 141 131
322 281 274 268 275 275 267 275 275 265 186 199 225 225 188 176 176 181 183 193 190 187 188 185 182 181 187 182 182 178 178 177 175 177 176 178 174 171 168 160 151 150 152 160 157 151 144 139 144
253 285 317 314 296 268 285 278 287 286 201 193 220 231 196 187 191 193 207 204 197 191 187 187 184 185 187 186 183 180 182 183 176 178 182 182 178 175 167 162 159 160 170 171 166 170 177 169 155
281 270 291 303 285 279 259 276 282 270 258 212 235 240 217 202 199 199 201 195 199 193 189 191 187 189 190 187 187 186 187 183 180 184 183 185 183 179 168 167 169 174 182 177 175 169 162 163 164
274 292 292 266 268 230 237 241 247 254 270 226 229 242 239 195 196 197 197 193 198 193 194 189 188 190 193 187 193 191 189 185 185 184 179 186 189 177 171 176 173 178 181 166 165 165 163 157 156
287 283 281 291 203 217 208 247 245 237 258 277 256 235 239 217 204 199 202 198 199 197 199 194 193 190 194 189 192 194 189 187 187 184 179 177 182 187 186 184 178 182 172 170 170 169 160 157 152
253 265 286 290 224 210 200 222 243 244 241 251 260 224 232 227 220 207 208 205 199 200 204 197 196 197 193 196 194 197 192 189 188 183 185 189 192 191 190 185 185 180 175 174 173 165 164 155 149
220 228 256 298 342 234 215 228 233 224 239 234 241 252 220 225 229 215 217 204 200 202 203 203 201 199 196 196 193 193 190 189 192 194 190 195 191 187 189 187 184 178 177 176 170 167 163 160 154
316 280 275 291 284 306 259 214 213 238 223 229 229 240 218 218 219 220 220 213 213 205 203 203 201 202 199 197 191 197 189 190 194 200 195 194 192 191 194 189 183 182 183 180 176 174 169 162 160
296 315 296 278 279 201 258 208 201 225 215 239 229 251 237 219 220 214 220 217 209 213 206 205 203 201 206 204 203 199 197 195 198 201 197 196 194 196 196 192 189 188 185 183 182 180 172 169 162
283 250 283 293 319 261 278 223 193 221 190 189 226 263 258 249 212 216 218 220 210 212 210 209 205 203 212 201 195 196 198 196 197 201 198 195 197 199 197 195 194 193 192 190 187 185 186 178 174
288 349 282 294 295 270 339 192 186 207 213 172 202 247 274 267 255 222 215 217 216 213 215 213 203 207 204 203 202 208 204 198 200 202 198 198 200 200 199 197 198 198 197 196 193 190 194 197 185
254 337 297 283 225 307 313 62 8 243 193 12 358 354 334 341 331 277 218 215 222 215 214 215 214 208 213 220 220 216 209 206 201 199 199 199 199 202 202 201 201 203 202 200 198 196 198 200 200
353 335 291 252 189 268 195 96 18 20 355 346 349 347 344 338 339 290 241 217 219 220 218 215 216 209 211 217 223 222 217 210 203 200 201 199 202 202 205 205 205 205 205 203 203 204 205 203 206
356 220 59 140 44 222 164 84 25 4 12 351 347 342 347 338 329 337 355 14 223 214 215 215 212 213 215 215 216 225 222 221 213 209 204 202 205 206 205 207 207 207 207 206 208 209 211 210 210
296 320 32 181 169 168 41 108 70 22 5 357 352 351 354 351 338 330 330 321 264 222 218 217 214 214 211 217 221 221 218 220 218 215 211 208 208 208 209 208 210 209 210 210 211 214 216 217 214
328 13 34 282 293 83 106 77 194 14 10 2 356 355 0 356 347 335 316 319 318 227 224 224 220 214 211 216 218 225 228 229 223 219 213 214 214 211 214 215 214 212 214 215 216 217 218 219 217
33 282 9 311 16 119 86 71 349 350 350 357 351 350 354 356 352 335 318 308 314 236 236 230 221 221 217 224 226 225 224 227 227 229 222 214 213 215 219 220 219 220 219 219 220 220 221 220 220
5 14 337 180 18 353 47 26 9 329 346 343 337 347 349 357 356 343 325 306 303 258 231 230 227 225 224 225 227 228 228 229 228 232 228 229 227 221 216 222 222 223 223 224 223 222 221 220 220
69 348 345 14 330 16 221 200 232 287 357 350 341 346 349 357 356 352 339 316 291 280 227 221 232 235 233 231 230 234 229 226 231 226 233 237 232 230 228 233 226 224 221 224 225 227 224 221 221
Height
1491 1494 1495 1499 1506 1494 1490 1483 1471 1471 1469 1466 1469 1470 1476 1480 1485 1499 1492 1495 1495 1496 1500 1505 1510 1514 1518 1521 1525 1529 1531 1534 1537 1540 1542 1544 1546 1549 1551 1553 1555 1557 1559 1561 1563 1565 1566 1568 1569
1489 1493 1495 1495 1499 1488 1481 1473 1471 1466 1464 1464 1467 1473 1478 1482 1483 1487 1491 1494 1494 1495 1500 1505 1509 1514 1518 1522 1526 1529 1532 1535 1538 1541 1544 1546 1548 1550 1553 1555 1557 1559 1561 1563 1566 1567 1569 1571 1573
1488 1492 1495 1495 1495 1478 1472 1466 1465 1464 1464 1465 1470 1475 1480 1483 1484 1484 1488 1491 1494 1496 1500 1504 1509 1514 1518 1522 1526 1530 1533 1536 1539 1542 1545 1547 1549 1552 1554 1557 1559 1561 1563 1565 1567 1570 1572 1574 1576
1487 1491 1491 1485 1480 1480 1470 1460 1461 1461 1463 1465 1470 1478 1481 1483 1483 1481 1486 1490 1493 1496 1500 1504 1509 1514 1518 1522 1526 1530 1534 1537 1539 1543 1546 1548 1551 1554 1555 1558 1561 1563 1565 1567 1569 1572 1574 1576 1578
1483 1481 1476 1469 1465 1467 1470 1462 1459 1460 1461 1466 1470 1474 1478 1481 1481 1482 1484 1489 1492 1496 1500 1504 1509 1514 1519 1523 1527 1530 1534 1537 1540 1544 1546 1549 1552 1555 1557 1560 1562 1565 1567 1569 1572 1574 1576 1578 1581
1476 1470 1464 1457 1456 1456 1458 1459 1460 1460 1458 1462 1467 1471 1474 1477 1479 1481 1483 1489 1494 1494 1500 1505 1509 1514 1519 1523 1527 1531 1534 1537 1541 1544 1548 1550 1553 1556 1558 1561 1564 1566 1569 1571 1574 1576 1578 1581 1582
1463 1459 1445 1448 1448 1451 1448 1453 1454 1457 1458 1457 1462 1467 1471 1474 1477 1480 1483 1490 1492 1495 1498 1505 1509 1514 1519 1524 1528 1531 1534 1538 1542 1545 1548 1552 1555 1557 1559 1562 1565 1567 1570 1573 1576 1578 1580 1583 1585
1463 1458 1451 1440 1444 1442 1443 1444 1447 1450 1452 1457 1460 1463 1469 1471 1473 1478 1483 1489 1490 1494 1498 1503 1508 1513 1518 1523 1527 1531 1535 1538 1542 1546 1550 1553 1556 1559 1560 1563 1566 1568 1571 1574 1577 1580 1582 1584 1587
1462 1452 1437 1432 1441 1443 1440 1441 1441 1446 1450 1452 1456 1458 1462 1467 1470 1475 1483 1486 1488 1494 1499 1502 1507 1513 1518 1523 1526 1531 1535 1539 1542 1547 1550 1554 1556 1558 1561 1563 1568 1570 1573 1576 1579 1582 1584 1586 1589
1455 1445 1430 1442 1442 1441 1440 1438 1441 1442 1446 1448 1451 1456 1457 1465 1467 1471 1477 1481 1485 1492 1497 1501 1506 1512 1517 1521 1525 1530 1535 1538 1542 1547 1550 1553 1555 1558 1562 1565 1569 1572 1575 1578 1580 1583 1586 1588 1590
1449 1439 1442 1442 1443 1445 1442 1436 1438 1440 1440 1445 1449 1457 1457 1461 1466 1468 1474 1477 1482 1488 1495 1500 1504 1510 1515 1519 1523 1528 1533 1537 1542 1545 1548 1551 1555 1559 1563 1567 1571 1573 1576 1578 1580 1582 1586 1589 1590
1458 1444 1444 1445 1442 1447 1441 1440 1434 1440 1437 1444 1449 1455 1455 1459 1464 1468 1471 1476 1481 1486 1492 1498 1503 1508 1513 1518 1521 1526 1530 1535 1537 1543 1547 1550 1554 1559 1563 1567 1571 1574 1577 1578 1582 1585 1587 1589 1591
1454 1454 1452 1449 1447 1444 1445 1439 1438 1435 1437 1440 1446 1451 1451 1457 1462 1467 1470 1474 1479 1483 1489 1495 1501 1505 1510 1515 1519 1524 1528 1531 1537 1542 1546 1551 1554 1558 1563 1568 1570 1573 1575 1579 1582 1585 1587 1590 1593
1451 1453 1449 1447 1444 1446 1442 1440 1442 1434 1439 1440 1441 1446 1449 1453 1459 1465 1469 1472 1477 1481 1486 1492 1498 1502 1508 1512 1517 1520 1524 1530 1536 1541 1545 1550 1553 1557 1562 1566 1570 1573 1575 1579 1582 1585 1587 1590 1593
1449 1448 1445 1445 1443 1445 1441 1439 1430 1438 1438 1439 1439 1442 1447 1449 1455 1461 1466 1470 1473 1479 1482 1488 1494 1499 1504 1510 1514 1518 1522 1528 1535 1541 1546 1550 1553 1557 1561 1564 1569 1571 1574 1579 1582 1585 1587 1590 1593
1449 1446 1448 1433 1438 1436 1443 1433 1432 1437 1437 1438 1439 1440 1444 1448 1451 1457 1462 1468 1471 1476 1479 1486 1490 1495 1500 1505 1510 1516 1522 1527 1533 1539 1544 1547 1553 1557 1560 1563 1566 1569 1575 1578 1581 1584 1587 1590 1594
1449 1454 1443 1431 1427 1429 1434 1434 1433 1435 1435 1437 1439 1438 1440 1445 1450 1454 1459 1463 1468 1472 1476 1481 1486 1491 1496 1501 1507 1514 1521 1526 1531 1537 1541 1546 1551 1555 1558 1560 1564 1570 1574 1577 1580 1584 1587 1590 1594
1454 1453 1436 1439 1432 1425 1426 1427 1430 1427 1431 1434 1436 1437 1439 1443 1447 1452 1457 1459 1464 1470 1473 1478 1482 1488 1492 1498 1504 1511 1518 1525 1530 1535 1540 1544 1549 1553 1556 1559 1565 1569 1573 1576 1580 1583 1587 1591 1593
1445 1442 1445 1435 1433 1438 1425 1423 1423 1424 1429 1434 1432 1434 1437 1441 1446 1451 1454 1456 1460 1465 1469 1473 1479 1483 1487 1493 1500 1508 1514 1522 1528 1533 1538 1543 1547 1551 1554 1560 1564 1568 1571 1575 1579 1582 1586 1589 1594
1444 1447 1444 1429 1431 1433 1420 1418 1424 1427 1426 1429 1431 1434 1436 1440 1444 1448 1450 1453 1455 1461 1466 1470 1475 1479 1485 1490 1495 1501 1509 1517 1525 1530 1536 1541 1545 1548 1553 1558 1561 1565 1569 1573 1576 1581 1584 1588 1593
1447 1451 1442 1435 1429 1425 1426 1420 1423 1423 1425 1429 1431 1435 1435 1438 1439 1443 1447 1450 1453 1458 1463 1468 1472 1476 1483 1488 1491 1497 1506 1514 1521 1527 1533 1537 1542 1546 1551 1556 1559 1563 1567 1570 1575 1579 1583 1585 1590
1454 1442 1435 1434 1439 1429 1427 1427 1421 1422 1422 1426 1433 1437 1439 1438 1439 1441 1445 1449 1451 1455 1460 1464 1467 1474 1478 1483 1488 1492 1499 1507 1515 1521 1528 1533 1539 1543 1549 1553 1557 1561 1565 1569 1573 1578 1581 1585 1587
1454 1445 1444 1438 1434 1435 1428 1434 1436 1420 1422 1447 1447 1447 1443 1437 1436 1438 1441 1444 1447 1451 1455 1460 1465 1471 1474 1480 1484 1489 1496 1503 1509 1516 1524 1530 1534 1540 1545 1550 1554 1558 1562 1567 1572 1576 1579 1584 1587
1451 1448 1437 1435 1438 1438 1427 1435 1459 1458 1458 1453 1451 1448 1446 1439 1437 1436 1438 1442 1445 1449 1451 1456 1461 1465 1470 1476 1481 1487 1492 1497 1504 1511 1518 1524 1530 1535 1541 1546 1550 1554 1559 1564 1569 1574 1577 1581 1585
1452 1451 1449 1442 1458 1463 1416 1435 1470 1466 1465 1462 1458 1453 1448 1441 1440 1435 1433 1434 1442 1445 1447 1452 1456 1461 1466 1473 1478 1484 1489 1493 1498 1503 1511 1517 1523 1529 1534 1539 1544 1549 1555 1561 1566 1570 1574 1578 1582
1454 1451 1447 1446 1458 1444 1428 1456 1476 1472 1469 1465 1461 1455 1449 1441 1439 1434 1432 1434 1438 1443 1445 1448 1452 1457 1460 1468 1473 1479 1483 1487 1494 1499 1503 1511 1516 1522 1528 1534 1539 1545 1550 1556 1561 1566 1571 1574 1579
1457 1453 1461 1454 1425 1432 1446 1466 1467 1469 1469 1465 1459 1455 1448 1444 1437 1434 1432 1433 1436 1439 1442 1444 1449 1454 1458 1463 1469 1475 1480 1483 1488 1493 1497 1505 1512 1516 1524 1530 1535 1541 1546 1552 1556 1561 1565 1570 1575
1462 1461 1456 1457 1446 1439 1454 1472 1484 1475 1470 1466 1464 1458 1453 1447 1439 1435 1434 1434 1435 1436 1441 1442 1445 1449 1454 1459 1464 1469 1475 1478 1483 1488 1493 1498 1504 1511 1518 1523 1530 1537 1541 1546 1551 1555 1560 1566 1570
1470 1474 1462 1466 1455 1446 1438 1483 1483 1483 1475 1472 1468 1465 1459 1451 1446 1442 1438 1435 1434 1435 1437 1441 1442 1446 1449 1453 1459 1463 1469 1474 1479 1483 1489 1494 1500 1505 1509 1516 1523 1529 1535 1539 1544 1549 1553 1558 1563
1480 1488 1483 1470 1478 1471 1464 1493 1484 1481 1476 1473 1470 1463 1459 1456 1450 1445 1440 1436 1434 1434 1433 1436 1440 1443 1446 1450 1455 1458 1463 1468 1472 1477 1483 1488 1493 1500 1505 1510 1516 1521 1525 1531 1537 1542 1546 1550 1555